TimeEST,TemperatureF,Dew PointF,Humidity,Sea Level PressureIn,VisibilityMPH,Wind Direction,Wind SpeedMPH,Gust SpeedMPH,PrecipitationIn,Events,Conditions,WindDirDegrees,DateUTC
12:15 AM,25.3,15.1,65,30.15,10.0,Calm,Calm,-,N/A,,Mostly Cloudy,0,2013-01-21 05:15:00
12:35 AM,25.7,15.6,66,30.14,10.0,Calm,Calm,-,N/A,,Overcast,0,2013-01-21 05:35:00
12:55 AM,26.4,13.6,59,30.13,10.0,NNW,3.5,-,N/A,,Overcast,340,2013-01-21 05:55:00
1:15 AM,26.2,14.4,61,30.12,10.0,NNW,3.5,-,N/A,,Overcast,340,2013-01-21 06:15:00
1:35 AM,26.2,14.4,61,30.12,10.0,Calm,Calm,-,N/A,,Overcast,0,2013-01-21 06:35:00
1:55 AM,26.4,13.6,59,30.12,10.0,Calm,Calm,-,N/A,,Overcast,0,2013-01-21 06:55:00
2:15 AM,26.2,14.2,60,30.12,10.0,Calm,Calm,-,N/A,,Overcast,0,2013-01-21 07:15:00
2:35 AM,25.2,14.7,65,30.12,10.0,Calm,Calm,-,N/A,,Mostly Cloudy,0,2013-01-21 07:35:00
2:55 AM,25.5,14.0,62,30.11,10.0,Calm,Calm,-,N/A,,Overcast,0,2013-01-21 07:55:00
3:15 AM,25.7,15.3,65,30.11,10.0,Calm,Calm,-,N/A,,Overcast,0,2013-01-21 08:15:00
3:35 AM,25.7,14.4,62,30.11,10.0,WSW,3.5,-,N/A,,Overcast,240,2013-01-21 08:35:00
3:55 AM,25.7,15.1,64,30.10,10.0,WSW,3.5,-,N/A,,Overcast,250,2013-01-21 08:55:00
4:15 AM,25.9,14.7,63,30.10,10.0,West,3.5,-,N/A,,Overcast,260,2013-01-21 09:15:00
4:35 AM,25.7,14.5,63,30.09,10.0,WSW,3.5,-,N/A,,Overcast,240,2013-01-21 09:35:00
4:55 AM,25.7,14.2,62,30.09,10.0,Calm,Calm,-,N/A,,Overcast,0,2013-01-21 09:55:00
5:15 AM,25.7,14.5,63,30.08,10.0,SW,4.6,-,N/A,,Overcast,230,2013-01-21 10:15:00
5:55 AM,25.7,14.7,63,30.08,10.0,WSW,4.6,-,N/A,,Overcast,250,2013-01-21 10:55:00
6:15 AM,25.7,14.7,63,30.09,10.0,WSW,4.6,-,N/A,,Overcast,250,2013-01-21 11:15:00
6:35 AM,25.5,14.7,64,30.08,10.0,SW,3.5,-,N/A,,Overcast,230,2013-01-21 11:35:00
6:55 AM,25.5,14.9,64,30.08,10.0,SW,4.6,-,N/A,,Overcast,230,2013-01-21 11:55:00
7:15 AM,25.5,14.2,62,30.07,10.0,West,5.8,-,N/A,,Overcast,260,2013-01-21 12:15:00
7:35 AM,25.5,14.0,62,30.07,10.0,WSW,5.8,-,N/A,,Overcast,250,2013-01-21 12:35:00
7:55 AM,25.5,14.4,63,30.06,10.0,WSW,3.5,-,N/A,,Overcast,250,2013-01-21 12:55:00
8:15 AM,25.5,14.9,64,30.06,10.0,WSW,4.6,-,N/A,,Overcast,240,2013-01-21 13:15:00
8:35 AM,25.5,15.1,65,30.05,10.0,SW,4.6,-,N/A,,Scattered Clouds,230,2013-01-21 13:35:00
8:55 AM,26.2,15.1,63,30.05,10.0,SW,4.6,-,N/A,,Clear,220,2013-01-21 13:55:00
9:15 AM,27.1,15.3,61,30.05,10.0,WSW,5.8,-,N/A,,Clear,240,2013-01-21 14:15:00
9:35 AM,27.5,14.9,59,30.05,10.0,WSW,8.1,-,N/A,,Clear,250,2013-01-21 14:35:00
9:55 AM,28.6,15.3,58,30.05,10.0,West,12.7,18.4,N/A,,Scattered Clouds,280,2013-01-21 14:55:00
10:15 AM,28.9,14.7,55,30.06,10.0,West,16.1,20.7,N/A,,Scattered Clouds,270,2013-01-21 15:15:00
10:35 AM,28.8,15.3,57,30.06,10.0,West,16.1,-,N/A,,Scattered Clouds,280,2013-01-21 15:35:00
10:55 AM,28.4,15.3,58,30.04,10.0,West,17.3,-,N/A,,Mostly Cloudy,270,2013-01-21 15:55:00
11:15 AM,28.8,15.8,58,30.04,10.0,West,13.8,-,N/A,Snow,Light Snow,260,2013-01-21 16:15:00
11:35 AM,29.1,15.8,58,30.03,10.0,West,15.0,21.9,N/A,,Overcast,260,2013-01-21 16:35:00
11:55 AM,29.3,14.9,55,30.02,10.0,West,17.3,21.9,N/A,,Overcast,270,2013-01-21 16:55:00
12:15 PM,28.2,15.4,59,30.02,10.0,West,11.5,20.7,N/A,,Overcast,280,2013-01-21 17:15:00
12:35 PM,28.0,15.4,59,30.01,10.0,West,15.0,19.6,N/A,Snow,Light Snow,270,2013-01-21 17:35:00
12:55 PM,28.9,14.9,56,30.01,10.0,West,12.7,25.3,N/A,,Overcast,260,2013-01-21 17:55:00
1:15 PM,28.4,12.2,51,30.00,10.0,West,16.1,26.5,N/A,,Overcast,280,2013-01-21 18:15:00
1:35 PM,27.5,14.5,58,30.00,7.0,West,16.1,23.0,N/A,Snow,Light Snow,280,2013-01-21 18:35:00
1:55 PM,26.4,16.9,67,30.02,2.5,West,16.1,21.9,N/A,Snow,Light Snow,280,2013-01-21 18:55:00
2:15 PM,27.9,18.3,67,30.01,5.0,West,15.0,20.7,N/A,Snow,Light Snow,260,2013-01-21 19:15:00
2:35 PM,28.0,16.2,61,30.01,10.0,WNW,12.7,18.4,N/A,,Overcast,290,2013-01-21 19:35:00
2:55 PM,26.4,14.9,62,30.02,10.0,WNW,16.1,-,N/A,,Overcast,290,2013-01-21 19:55:00
3:15 PM,25.7,17.4,71,30.02,3.0,WSW,13.8,23.0,N/A,Snow,Light Snow,250,2013-01-21 20:15:00
3:35 PM,25.5,18.0,73,30.03,2.0,WNW,12.7,19.6,N/A,Snow,Light Snow,290,2013-01-21 20:35:00
3:55 PM,23.9,18.5,80,30.04,1.5,West,11.5,-,N/A,Snow,Light Snow,280,2013-01-21 20:55:00
4:15 PM,23.9,15.8,71,30.05,10.0,West,18.4,24.2,N/A,,Mostly Cloudy,270,2013-01-21 21:15:00
4:35 PM,23.9,14.5,67,30.05,10.0,West,18.4,24.2,N/A,,Mostly Cloudy,280,2013-01-21 21:35:00
4:55 PM,23.7,14.5,68,30.06,7.0,WNW,16.1,24.2,N/A,Snow,Light Snow,300,2013-01-21 21:55:00
5:15 PM,23.0,13.1,66,30.06,10.0,West,15.0,19.6,N/A,,Overcast,280,2013-01-21 22:15:00
5:35 PM,23.0,9.0,55,30.07,10.0,West,12.7,21.9,N/A,,Overcast,280,2013-01-21 22:35:00
5:55 PM,22.6,6.6,50,30.07,10.0,WNW,11.5,19.6,N/A,,Mostly Cloudy,290,2013-01-21 22:55:00
6:15 PM,21.6,6.6,53,30.09,10.0,West,12.7,20.7,N/A,,Mostly Cloudy,280,2013-01-21 23:15:00
6:35 PM,20.8,5.9,53,30.09,10.0,West,13.8,18.4,N/A,,Scattered Clouds,280,2013-01-21 23:35:00
6:55 PM,20.1,5.5,53,30.10,10.0,WNW,11.5,20.7,N/A,,Clear,300,2013-01-21 23:55:00
7:15 PM,19.2,5.0,54,30.11,10.0,WNW,11.5,19.6,N/A,,Clear,300,2013-01-22 00:15:00
7:35 PM,18.5,4.5,54,30.11,10.0,WNW,11.5,19.6,N/A,,Clear,300,2013-01-22 00:35:00
7:55 PM,17.8,4.3,56,30.12,10.0,WNW,10.4,20.7,N/A,,Clear,290,2013-01-22 00:55:00
8:15 PM,17.2,3.9,56,30.12,10.0,WNW,15.0,21.9,N/A,,Clear,290,2013-01-22 01:15:00
8:35 PM,16.3,3.9,58,30.13,10.0,WNW,6.9,-,N/A,,Clear,300,2013-01-22 01:35:00
8:55 PM,15.8,3.2,58,30.14,10.0,West,10.4,-,N/A,,Clear,280,2013-01-22 01:55:00
9:15 PM,15.4,3.2,59,30.15,10.0,WNW,9.2,-,N/A,,Clear,290,2013-01-22 02:15:00
9:35 PM,14.9,3.6,61,30.16,10.0,WNW,11.5,17.3,N/A,,Clear,300,2013-01-22 02:35:00
9:55 PM,14.7,3.4,61,30.17,10.0,WNW,11.5,17.3,N/A,,Clear,290,2013-01-22 02:55:00
10:15 PM,14.7,3.2,60,30.17,10.0,WNW,9.2,18.4,N/A,,Clear,290,2013-01-22 03:15:00
10:35 PM,14.0,3.6,63,30.17,10.0,NW,12.7,17.3,N/A,,Clear,310,2013-01-22 03:35:00
10:55 PM,14.0,0.3,55,30.17,10.0,West,17.3,26.5,N/A,,Clear,270,2013-01-22 03:55:00
11:15 PM,13.5,-0.8,53,30.18,10.0,West,16.1,23.0,N/A,,Clear,280,2013-01-22 04:15:00
11:35 PM,12.9,-1.5,53,30.18,10.0,WNW,12.7,19.6,N/A,,Clear,290,2013-01-22 04:35:00
11:55 PM,12.6,-1.7,53,30.19,10.0,WNW,10.4,20.7,N/A,,Clear,290,2013-01-22 04:55:00